Preview of NWS' New Version of Forecast
This preview is not operational and should not be used for support decisions.

Regional Weather Roundup (RWR)

Issued by Philadelphia/Mt Holly (PHI)

                            
000
ASUS41 KPHI 182212
RWRPHI

REGIONAL WEATHER ROUNDUP
NATIONAL WEATHER SERVICE MOUNT HOLLY NJ
600 PM EDT WED SEP 18 2019

NOTE:  "FAIR" INDICATES FEW OR NO CLOUDS BELOW 12,000 FEET WITH NO
SIGNIFICANT WEATHER AND/OR OBSTRUCTIONS TO VISIBILITY.

 * = STATION DOES NOT REPORT PRECIPITATION (E.G. RAIN, SNOW, ETC.) 
        OR FOG.

NJZ015>026-182300-
SOUTHERN NEW JERSEY
  
CITY           SKY/WX    TMP DP  RH WIND       PRES   REMARKS
POMONA         FAIR      67  52  58 NE13G22   30.22S                  
WILDWOOD*      FAIR      67  53  61 NE15G23   30.21S                  
MILLVILLE      FAIR      69  50  50 E12       30.21R                  
WRIGHTSTOWN    FAIR      67  49  52 E10       30.22R                  
MOUNT HOLLY    FAIR      69  49  48 E5        30.22R                  
TRENTON        FAIR      68  49  50 E8        30.22R                  

$$
NJZ001>014-182300-
NORTHERN NEW JERSEY
  
CITY           SKY/WX    TMP DP  RH WIND       PRES   REMARKS
SUSSEX         FAIR      68  45  43 NE8       30.25R                  
ANDOVER*         N/A     69  48  47 CALM      30.25R                  
MORRISTOWN     MOSUNNY   68  52  56 SE7       30.24S                  
NEWARK         FAIR      68  47  46 NE8       30.24S                  
TETERBORO      FAIR      67  46  47 E10       30.23S                  
CALDWELL       FAIR      70  48  45 E9        30.24S                  
SOMERVILLE     FAIR      71  47  42 VRB6      30.21S                  
ALLAIRE*       FAIR      65  49  56 NE12      30.25S                  
TOMS RIVER*    FAIR      65  51  60 NE10      30.24S                  

$$
PAZ043-044-047-054-055-060>062-066>071-182300-
EASTERN PENNSYLVANIA
  
CITY           SKY/WX    TMP DP  RH WIND       PRES   REMARKS
PHILADELPHIA   FAIR      71  46  40 NE7       30.21S                  
NORTH PHILA    FAIR      71  47  42 NE8       30.23R                  
BLUE BELL*     FAIR      69  48  47 NE6       30.22R                  
DOYLESTOWN     FAIR      73  47  39 N9        30.22R                  
QUAKERTOWN*    SUNNY     70  46  43 NE6       30.23                   
PERKASIE*      FAIR      68  48  49 NE7       30.24R                  
POTTSTOWN      FAIR      69  47  45 NE8       30.24R                  
LANCASTER      FAIR      72  47  40 NE9       30.21S                  
COATESVILLE    FAIR      68  48  49 N6        30.23S                  
WEST CHESTER   FAIR      72  45  37 NE5       30.22R                  
READING        FAIR      71  47  42 VRB7      30.21R                  
ALLENTOWN      FAIR      73  44  35 E12       30.22S                  
QN CITY/ALNTWN FAIR      70  46  43 E10       30.24R                  
MOUNT POCONO   FAIR      65  40  39 NE9       30.25S                  
HAZLETON       FAIR      68  41  37 N3        30.27S                  
LEHIGHTON      FAIR      72  46  40 CALM      30.23R                  
WILKES BARRE   FAIR      73  42  32 E6        30.22S                  

$$
DEZALL-MDZ008-012-015-019-020-182300-
DELAWARE AND EASTERN MARYLAND
  
CITY           SKY/WX    TMP DP  RH WIND       PRES   REMARKS
WILMINGTON     FAIR      73  49  42 NE9       30.21R                  
DOVER          PTSUNNY   71  53  53 E7        30.20R                  
CHESWOLD       PTCLDY    70  52  52 E5        30.20R                  
GEORGETOWN     NOT AVBL                                               
EASTON         MOSUNNY   75  52  43 E10       30.22S                  
ABERDEEN       MOSUNNY   73  50  43 NE7       30.19S                  
PATUXENT       PTSUNNY   75  53  46 N10       30.17                   
OCEAN CITY     PTSUNNY   67  54  63 NE14G24   30.19S                  
WALLOPS ISLAND PTSUNNY   69  54  58 NE20G25   30.19R                  
CAMBRIDGE      PTSUNNY   72  54  53 E8        30.19R                  
SALISBURY      PTSUNNY   69  51  52 NE14      30.20R                  

$$
PAZ001-021-NYZ056-072-MDZ011-DCZ001-182300-
OTHER NEARBY LOCATIONS
  
CITY           SKY/WX    TMP DP  RH WIND       PRES   REMARKS
HARRISBURG     PTSUNNY   74  45  35 E8        30.20S                  
STATE COLLEGE  SUNNY     70  45  40 NE8       30.24S                  
WILLIAMSPORT   FAIR      74  40  29 NE8       30.22R                  
BINGHAMTON     FAIR      65  42  43 E9        30.26S                  
NEW YORK CITY  FAIR      66  46  48 NE7       30.27S                  
BALTIMORE      FAIR      75  51  43 VRB6      30.18S                  
WASHINGTON DC  PTSUNNY   75  49  39 E10       30.18S                  

$$